Location: Unspecified
(35.7250°N, 0.0000°E)
Time: 14:16:12
(UTC+00:00)

Vanguard 1 Rocket - Pass Details

Date: 21 June 2019
Orbit: 651 x 4225 km, 34.3° (Epoch: 15 July)

Event Time Altitude Azimuth Distance (km) Brightness Sun altitude
Rises 23:43:10 0° 276° (W) 3,807 10.7 -30.7°
Enters shadow 23:45:50 - 264° (W) 2,866 9.9 -30.7°
Reaches altitude 10° 23:47:12 10° 255° (WSW) 2,434 - -30.7°
Maximum altitude 23:50:22 16° 218° (SW) 1,827 - -30.8°
Drops below altitude 10° 23:53:07 10° 179° (S) 2,067 - -30.8°
Sets 23:56:07 0° 155° (SSE) 2,950 - -30.8°
